Погода в Начиках

Россия / Камчатский край     53°07′20″N   157°44′50″E
темп.,
°C
ветер,
м/с
пор.,
м/с
влажн.,
%
обл.,
%
осадки,
мм/ч
давл.,
гПа
погр.,
м
28 ноября, вс
вс2800:00−8с2296100 1.4 100155
03:00−14ссз1197100 0.4 100310
06:00−14ссз1197100 0.8 100313
09:00−15зсз2197100 0.3 100511
12:00−13з229490 0.4 100577
15:00−12з339375 0.1 1004206
18:00−18зюз3210092 0.1 100811
21:00−22зюз3210035 0.0 101010
29 ноября, пн
пн2900:00−23зюз2210031 0.0 10109
03:00−22юз32946 0.0 101110
06:00−20юз339131 0.0 101212
09:00−15зюз3383100 0.0 101118
12:00−11зюз3393100 0.0 101194
15:00−10зюз3394100 0.0 101173
18:00−13зюз3399100 0.0 101316
21:00−13юз3299100 0.0 101314
30 ноября, вт
вт3000:00−12юз2296100 0.0 101210
03:00−11юв1191100 0.0 101010
06:00−9всв2289100 0.1 100834
09:00−9в2296100 1.3 1006122
12:00−8сз2294100 3.6 1007218
15:00−8зюз349290 0.3 1009159
18:00−9зсз111794100 0.6 1014661
21:00−10з11189598 0.2 1017573
1 декабря, ср
ср100:00−11з7169498 0.3 1020428
03:00−14юз439788 0.1 102319
06:00−13юз339799 0.3 102416
09:00−11ююз339599 0.3 102540
12:00−8ююз3392100 0.6 1025159
15:00−7ююв2389100 0.2 1024100
18:00−7в3396100 0.6 1022106
21:00−8в3496100 3.2 1019191
2 декабря, чт
чт200:00−8в4496100 3.9 1016159
03:00−7в4496100 5.2 1013144
06:00−5в5597100 6.5 1008173
09:00−4в5597100 4.1 1002202
12:00−2в4497100 16.9 996128
15:000в4499100 7.3 98994
18:00+1зюз41099100 9.7 988653
21:00−2зюз71591100 4.2 9891026